ARIANE 2 DEB, 27031

Orbit data source: Space-Track

ARIANE 2 DEB, 27031 is space debris in HEO originally from a launch on Fri, 27 Jan 1989 UTC launched from the French Guiana (FRGUI). Debris objects in space refer to the collection of defunct objects orbiting the Earth. Examples of debris include non-operational satellites, rocket bodies, and fragments generated from explosions, collisions, or faulty payload assembly.

Loading next visibility...
Identifier
27031, 1989-006L
Orbit
HEO
Country
Flag of FRFR
Related business
Manufacturer
EADS/LV
Mission
Spacecraft
Bus & Motor
Unknown
Mass
Unknown
Launch date (UTC)
1989-01-27 (37 years ago)
Launch vehicle
Unknown
Launch site
French Guiana (FRGUI)
Object type
Payload
Rocket body
Debris
Shape & HBR
Unknown shape, 0.7 m
Radar Cross Section
Medium (>0.1 m² and <1 m²)

Expand to show TLE details & history
Last TLE update: 7 months ago

TLE from 7 months ago
0 ARIANE 2 DEB
1 27031U 89006L   25280.21977868  .00076948  00000-0  55985-1 0  9998
2 27031   7.9723 344.2755 6433661 253.1926  30.8828  3.35214818239558
Epoch: 2025-10-07T05:16Z
TLE epoch observation values (Epoch: 2025-10-07T05:16:28.877Z)
Latitude
0.0001°
Longitude
-111.05527°
Altitude
7,196.346 km
Speed
6.131 km/s
True Right ascension
22h 56m 42s
True Declination
0° 00' 00"
Sunlit
Object was in daylight at epoch
Visualization orbit readout
Latitude
Unknown
Longitude
Unknown
Altitude
Unknown
Speed
Unknown
Apparent Right ascension
Unknown
Apparent Declination
Unknown
Sunlit
N/A
Visualization observer readout
Local Sidereal Time
23:34:12
Azimuth
Unknown
Elevation
Unknown
Doppler factor
Unknown
Orbital elements
Apogee altitude
24,622.506 km
Perigee altitude
349.445 km
Semi-major axis
18,864.112 km
Eccentricity
0.64337
Inclination
7.9723°
RAAN
344.2755°
Arg. of periapsis
253.1926°
True anomaly
106.61124°
Mean anomaly
30.8828°
Eccentric anomaly
64.0199°
Mean motion
0.8377 °/min
Orbital period
429.75 mins
BSTAR
0.055985
Loading maneuver chart data...
Computing Atmospheric mass density...
Loading historical data...
Loading historical data...
Loading historical data...
Loading historical data...
Loading historical data...
Loading historical data...
Loading historical data...

Documentation

Showing up to 5 results
|